This is the latest recevied weather packets stored in our database for station/object KD9IXX-13. If no packets are shown the sender has not sent any weather packets the latest 10 day(s).
| Time | Temp. | Humidity | Pressure | Rain* | Wind** | Luminosity | Snow |
|---|---|---|---|---|---|---|---|
| 1777740001 | 10.56° C | 47% | 1021.4 hPa | 0 mm | - | 804 W/m² | - |
| 1777739702 | 8.89° C | 49% | 1021.5 hPa | 0 mm | - | 768 W/m² | - |
| 1777739402 | 9.44° C | 49% | 1021.5 hPa | 0 mm | - | 189 W/m² | - |
| 1777739102 | 10° C | 48% | 1021.9 hPa | 0 mm | - | 235 W/m² | - |
| 1777738802 | 11.67° C | 45% | 1021.7 hPa | 0 mm | - | 567 W/m² | - |
| 1777738502 | 11.67° C | 52% | 1021.8 hPa | 0 mm | - | 198 W/m² | - |
| 1777738202 | 10.56° C | 45% | 1021.6 hPa | 0 mm | - | 811 W/m² | - |
| 1777737902 | 9.44° C | 55% | 1021.6 hPa | 0 mm | - | 747 W/m² | - |
| 1777737602 | 10° C | 45% | 1022 hPa | 0 mm | - | 248 W/m² | - |
| 1777737302 | 10.56° C | 49% | 1022 hPa | 0 mm | - | 809 W/m² | - |
| 1777737003 | 10° C | 48% | 1021.6 hPa | 0 mm | - | 672 W/m² | - |
| 1777736702 | 10.56° C | 48% | 1021.8 hPa | 0 mm | - | 789 W/m² | - |
| 1777736402 | 10° C | 50% | 1021.9 hPa | 0 mm | - | 779 W/m² | - |
| 1777736103 | 10° C | 49% | 1022 hPa | 0 mm | - | 753 W/m² | - |
| 1777735802 | 10° C | 54% | 1021.7 hPa | 0 mm | - | 722 W/m² | - |
| 1777735503 | 9.44° C | 48% | 1021.8 hPa | 0 mm | - | 702 W/m² | - |
| 1777735202 | 8.89° C | 49% | 1022 hPa | 0 mm | - | 680 W/m² | - |
| 1777734902 | 9.44° C | 49% | 1021.8 hPa | 0 mm | - | 694 W/m² | - |
| 1777734602 | 8.89° C | 49% | 1021.7 hPa | 0 mm | - | 721 W/m² | - |
| 1777734302 | 9.44° C | 48% | 1021.9 hPa | 0 mm | - | 685 W/m² | - |
| 1777734003 | 8.89° C | 49% | 1021.8 hPa | 0 mm | - | 688 W/m² | - |
| 1777733702 | 9.44° C | 52% | 1021.8 hPa | 0 mm | - | 696 W/m² | - |
| 1777733403 | 8.89° C | 56% | 1021.8 hPa | 0 mm | - | 676 W/m² | - |
| 1777732802 | 8.89° C | 48% | 1021.8 hPa | 0 mm | - | 669 W/m² | - |
| 1777732502 | 8.33° C | 52% | 1021.8 hPa | 0 mm | - | 649 W/m² | - |
* Rain latest hour (hover to see other rain measurements)
** Current wind speed in m/s (hover to see current wind gust speed)